Погода в Сан-Луисе

Испания     39°50′59″N   4°15′34″E
темп.,
°C
ветер,
м/с
пор.,
м/с
влажн.,
%
обл.,
%
осадки,
мм/ч
давл.,
гПа
погр.,
м
17 мая, пн
пн1723:00+20ссв56735 0.0 101275
02:00+17св1112875 0.0 1014533
05:00+17св1113745 0.0 1014694
08:00+17св1111685 0.0 1016682
11:00+17св10106522 0.0 1018828
14:00+17св776594 0.0 1019721
17:00+17св776637 0.0 1019674
20:00+17всв556710 0.0 1019548
18 мая, вт
вт1823:00+17всв446379 0.0 1020400
02:00+17ссв115913 0.0 1021152
05:00+17ссв3362100 0.0 1020270
08:00+17всв3366100 0.0 1021397
11:00+17вюв3364100 0.0 1021401
14:00+17ю3464100 0.0 1020350
17:00+18ююз55675 0.0 1018358
20:00+18ююз46760 0.0 1018276
19 мая, ср
ср1923:00+18ююз227812 0.0 102030
02:00+17с34785 0.0 1020202
05:00+17ссв668379 0.0 1020391
08:00+17ссв8971100 0.0 1022522
11:00+17ссв91066100 0.0 1023722
14:00+17ссв886482 0.0 1023743
17:00+17ссв886032 0.0 1023822
20:00+17ссв786695 0.0 1023695
20 мая, чт
чт2023:00+17ссв466456 0.0 1024377
02:00+17ссв81165100 0.0 10251242
05:00+16с1212665 0.0 1024870
08:00+17с111164100 0.0 1024874
11:00+17с111154100 0.0 1025864
14:00+18ссз8954100 0.0 10251008
17:00+18с7857100 0.0 1024612
20:00+18с6664100 0.0 1024705
21 мая, пт
пт2123:00+17сз446998 0.0 1025265
02:00+17сз447092 0.0 1024263
05:00+17сз337013 0.0 1023225
08:00+17с116751 0.0 1023177
11:00+17вюв3365100 0.0 1023362
14:00+17юв5566100 0.0 1022485
17:00+18ююв6668100 0.0 1020527
20:00+18ююв6672100 0.0 1019443